www.pogodaiklimat.ru

АРХИВ ПОГОДЫ в Москве

Время (UTC), дата Ветер
(напр.,м/с)
 
Видим.   Явления Облачность Т
(С)
Тd
(С)
f
(%)
Тe
(С)
Тes
(С)
Комфортность P
(гПа)
Po
(гПа)
Тmin
(С)
Tmax
(С)
R
(мм)
S
(см)
03 11.01 ЮЗ 1 н/о дымка {снег} 10/10 200 м
[St]
-6.9 -7.9 93 -9 -9 по сезону 1024.6 1004.1 -6.9 0.2
06 11.01 З 1 4000 м дымка {снег} 8/8 600 м
[Sc]
-10.0 -11.4 89 -12 -12 по сезону 1025.2 1004.4 -10.0 0.2 19
09 11.01 З 1 10 км ясно -10.4 -14.6 71 -13 -11 прохладно 1025.3 1004.5
12 11.01 штиль 0 10 км ясно -10.5 -14.0 75 -11 -10 прохладно 1024.7 1003.9
15 11.01 ЮЗ 1 н/о 3/3 1000 м
[Sc Ci fib]
-11.9 -14.0 84 -14 -14 холодно 1024.2 1003.3
18 11.01 ЮЗ 1 н/о слабый снег 10/0
[As op]
-11.0 -12.6 88 -13 -13 прохладно 1023.1 1002.3 -10.0
21 11.01 Ю 1 н/о слабый снег 10/0
[As op]
-10.2 -11.8 88 -13 -13 прохладно 1022.1 1001.4
00 12.01 штиль 0 н/о слабый снег 10/0
[As op]
-9.5 -11.4 86 -10 -10 по сезону 1020.2 999.6
03 12.01 ЮВ 1 н/о слабый снег 10/0
[As op]
-9.2 -10.8 88 -12 -12 прохладно 1017.9 997.4 -11.0 0.3
06 12.01 Ю 2 4000 м слабый снег 10/8 300 м
[Frnb As op]
-9.9 -11.3 89 -14 -14 прохладно 1015.8 995.2 -11.0 0.5 20
09 12.01 ЮВ 2 4000 м в посл. час снег 10/9 300 м
[Frnb As op]
-8.0 -9.6 88 -12 -12 прохладно 1012.9 992.6
12 12.01 ЮВ 2 4000 м слабый снег 10/10 300 м
[Frnb Ns]
-8.6 -10.4 87 -13 -13 холодно 1010.1 989.8
15 12.01 ЮВ 1 н/о слабый снег 10/8 300 м
[Frnb As op]
-8.1 -9.4 90 -11 -11 прохладно 1007.4 987.1 0.9
18 12.01 ЮВ 2 н/о слабый снег 10/9 300 м
[Frnb As op]
-6.8 -7.7 93 -11 -11 по сезону 1004.3 984.2 -6.8 4
21 12.01 штиль 0 н/о слабый снег 10/9 300 м
[Frnb As op]
-5.6 -6.4 94 -7 -7 по сезону 1003.8 983.8
00 13.01 ЮЗ 1 н/о дымка {снег} 10/10 600 м
[Sc]
-3.6 -4.7 92 -6 -6 по сезону 1005.1 985.2
03 13.01 Ю 1 н/о дымка 10/10 600 м
[Sc]
-3.1 -5.3 85 -5 -5 по сезону 1005.7 985.9 -6.8 5
06 13.01 Ю 1 10 км в посл. час снег 10/10 600 м
[Sc]
-3.1 -5.4 84 -5 -5 по сезону 1007.1 987.3 -6.8 2 25
09 13.01 Ю 1 10 км 10/10 600 м
[Sc]
-3.2 -6.7 77 -5 -5 по сезону 1008.9 989.0
12 13.01 ЮЗ 1 10 км 10/10 600 м
[Sc]
-3.5 -6.9 77 -6 -6 по сезону 1009.6 989.6
15 13.01 штиль 0 н/о 10/10 600 м
[Sc]
-4.1 -6.8 81 -5 -5 по сезону 1010.7 990.7
18 13.01 Ю 1 н/о 10/10 600 м
[Sc]
-4.8 -6.9 85 -7 -7 по сезону 1011.7 991.6 -3.0
21 13.01 Ю 1 н/о 10/10 600 м
[Sc]
-4.7 -6.9 85 -7 -7 по сезону 1012.2 992.1
00 14.01 Ю 2 н/о дымка 10/10 600 м
[Sc]
-4.8 -6.7 87 -9 -9 по сезону 1012.6 992.5
03 14.01 ЮВ 2 н/о дымка 10/10 300 м
[Frnb]
-4.6 -6.0 90 -9 -9 по сезону 1012.1 992.0 -5.1
06 14.01 Ю 2 4000 м дымка 10/10 300 м
[Frnb]
-3.4 -5.3 87 -8 -8 по сезону 1012.2 992.2 -5.1 24
09 14.01 Ю 2 10 км 10/10 600 м
[Sc]
-2.4 -5.0 82 -6 -6 по сезону 1012.5 992.5
12 14.01 Ю 3
{10}
10 км 10/10 600 м
[Sc]
-1.4 -4.6 79 -6 -6 по сезону 1012.5 992.6
15 14.01 Ю 3
{10}
н/о 10/10 600 м
[Sc]
-1.4 -4.2 81 -6 -6 по сезону 1012.0 992.2
18 14.01 ЮВ 3 н/о 10/10 600 м
[Sc]
-1.1 -4.3 79 -6 -6 по сезону 1011.7 991.8 -1.0
21 14.01 ЮВ 4
{10}
н/о дымка {снег} 10/10 300 м
[Frnb]
-1.3 -4.0 82 -7 -7 по сезону 1011.1 991.3
00 15.01 Ю 3
{11}
н/о слабый снег {метель} 10/10 300 м
[Frnb]
-1.3 -3.5 85 -6 -6 по сезону 1010.6 990.8
03 15.01 ЮВ 4
{12}
н/о снег {метель} 10/10 200 м
[Frnb Ns]
-1.6 -2.5 94 -8 -8 по сезону 1009.5 989.7 -1.7 0.9
06 15.01 Ю 3
{12}
1000 м снег {метель} 10/10 200 м
[Frnb Ns]
-1.7 -2.5 94 -7 -7 по сезону 1010.6 990.8 -1.9 3 28
09 15.01 Ю 2
{12}
4000 м слабый снег {метель} 10/10 300 м
[Frnb Ns]
-1.3 -2.3 93 -5 -5 по сезону 1011.7 991.8
12 15.01 Ю 2 1000 м снег {метель} 10/10 300 м
[Frnb Ns]
-0.9 -2.1 92 -5 -5 по сезону 1012.7 992.9
15 15.01 Ю 2 н/о слабый снег {метель} 10/10 200 м
[Frnb]
-0.8 -1.7 94 -5 -5 по сезону 1014.3 994.5 5
18 15.01 ЮВ 1 н/о слабый снег {метель} 10/10 200 м
[Frnb Ns]
-0.5 -1.6 92 -3 -3 по сезону 1015.3 995.4 -0.5 3
21 15.01 Ю 1 н/о дымка {снег} 10/10 200 м
[Frnb]
-0.5 -1.8 91 -3 -3 по сезону 1016.6 996.7
00 16.01 ЮВ 1 н/о дымка {снег} 10/10 200 м
[St]
-0.7 -1.9 92 -3 -3 тепло 1017.9 998.0
03 16.01 штиль 0 н/о слабый снег 10/10 200 м
[Frnb]
-0.6 -1.6 93 -2 -2 тепло 1018.8 998.9 -0.8 1
06 16.01 штиль 0 4000 м в посл. час снег 10/10 600 м
[Sc]
-1.7 -2.6 94 -3 -3 тепло 1020.9 1000.9 -1.7 0.6 31
09 16.01 10 км н/о -1.7 -3.6 87 -3 -2 по сезону 1022.6 1002.5
12 16.01 З 1 10 км 10/10 600 м
[Sc]
-0.3 -2.9 83 -2 -2 по сезону 1023.9 1003.9
15 16.01 штиль 0 н/о дымка 10/10 600 м
[Sc]
-1.4 -2.8 90 -3 -3 по сезону 1025.1 1005.0 0.3
18 16.01 СЗ 1 н/о слабый ливневой снег 10/10 600 м
[Cb cap]
-1.4 -3.3 87 -4 -4 по сезону 1026.4 1006.3 +0.4 0.3
21 16.01 штиль 0 н/о слабый ливневой снег 10/10 600 м
[Cb cap]
-2.3 -5.0 82 -3 -3 по сезону 1027.9 1007.6
00 17.01 С 1 н/о {ливн. осадки} 10/10 600 м
[Sc]
-2.7 -5.7 80 -5 -5 по сезону 1029.0 1008.7
03 17.01 штиль 0 н/о дымка 3/3 600 м
[Sc]
-6.7 -7.5 94 -8 -8 по сезону 1029.7 1009.1 -6.7 0.3
06 17.01 штиль 0 4000 м дымка 10/10 600 м
[Sc]
-5.9 -6.5 96 -7 -7 по сезону 1030.5 1010.0 -8.1 30
09 17.01 С 1 10 км дымка 9/9 600 м
[Sc]
-2.6 -5.4 81 -5 -5 по сезону 1031.3 1011.0
12 17.01 СЗ 1 10 км 9/9 600 м
[Sc]
-2.0 -5.5 77 -4 -4 по сезону 1031.8 1011.5
15 17.01 штиль 0 н/о дымка 9/9 600 м
[Sc]
-4.3 -5.9 89 -5 -5 по сезону 1032.5 1012.0
18 17.01 штиль 0 н/о слабый ливневой снег 10/10 300 м
[Cb cap]
-3.2 -4.3 92 -4 -4 по сезону 1032.7 1012.3 -1.7 0.4
21 17.01 СЗ 1 н/о дымка {ливн. осадки} 9/9 600 м
[Sc]
-3.5 -4.8 91 -6 -6 по сезону 1033.3 1012.9
00 18.01 СЗ 1 н/о дымка {ливн. осадки} 10/10 600 м
[Sc]
-4.2 -6.9 81 -6 -6 по сезону 1034.7 1014.2

 

Местоположение метеостанции Москва (город Москва, Россия): широта 55.83 долгота 37.62 высота над уровнем моря 156 м.

В архиве по умолчанию представлена погода в Москве за последнюю неделю. Архивные данные за месяц целиком и за предыдущие месяцы, начиная с января 2011 года, Вы можете получить, выбрав интересующий диапазон дат из раскрывающегося списка и нажав кнопку "Ввод!".

Внимание! Время в таблицах - всемирное. Для получения местного времени необходимо прибавить поправку, которая в Москве равна 3 ч.

Ветер - указаны скорость ветра в м/с - средняя за 10 мин, порывы в срок и между сроками (в фигурных скобках) и направление, откуда дует ветер: С - северный, СВ - северо-восточный, В - восточный, ЮВ - юго-восточный, Ю - южный, ЮЗ - юго-западный, З - западный, СЗ - северо-западный.
Видимость - горизонтальная дальность видимости в метрах или километрах. При видимости от 1 до 10 км при отсутствии осадков обычно наблюдается дымка, при ухудшении видимости до 1 км и менее - туман. В сухую погоду видимость может ухудшаться дымом, пылью или мглою.
Явления - указаны атмосферные явления, наблюдавшиеся в срок или в последний час перед сроком; фигурными скобками обозначены явления, наблюдавшиеся между сроками (за 1-3 часа до срока); квадратными скобками обозначены град или гололедные отложения с указанием их диаметра в мм.
Облачность - указаны через наклонную черту общая и нижняя облачность в баллах и высота нижней границы облаков в метрах; квадратными скобками обозначены формы облаков: Ci - перистые, Cs - перисто-слоистые, Cc - перисто-кучевые, Ac - высококучевые, As - высокослоистые, Sc - слоисто-кучевые, Ns - слоисто-дождевые, Cu - кучевые, Cb - кучево-дождевые. Подробнее классификацию облаков см. в Атласе облаков (PDF).
T - Температура воздуха - температура, измеренная на высоте 2 м над землей.
Td - Температура точки росы - температура, при понижении до которой содержащийся в воздухе водяной пар достигнет насыщения.
f - Относительная влажность воздуха - влажноcть воздуха, измеренная на высоте 2 м над землей.
Te - Эффективная температура - температура, которую ощущает одетый по сезону человек в тени. Характеристика душности погоды. При расчете учитывается влияние влажности воздуха и скорости ветра на теплоощущения человека.
Tes - Эффективная температура на солнце - температура, которую ощущает человек, с поправкой на солнечный нагрев. Характеристика знойности погоды. Зависит от высоты солнца над горизонтом, облачности и скорости ветра. Ночью, в пасмурную погоду, а также при ветре 12 м/с и более поправка равна нулю.
P - Атмосферное давление - приведенное к уровню моря атмосферное давление.
Po - Атмосферное давление - измеренное на уровне метеостанции атмосферное давление.
Tmin - Минимальная температура - минимум температуры воздуха на высоте 2 м над землей.
Tmax - Максимальная температура - максимум температуры воздуха на высоте 2 м над землей.
R - Количество осадков - Количество выпавших осадков, мм. При наведении курсора мыши на число - период времени, за который выпало указанное количество осадков.
S - Снежный покров - Высота снежного покрова, см. При наведении курсора мыши на число - состояние снежного покрова и степень покрытия местности в баллах.